Location: Hertford
(51.8000°N, 0.0667°W)
Time: 13:04:41
(UTC+00:00)

Cosmos 2150 Rocket - Pass Details

Date: 18 September 2020
Orbit: 748 x 808 km, 74.0° (Epoch: 21 October)

Event Time Altitude Azimuth Distance (km) Brightness Sun altitude
Rises 20:28:03 0° 207° (SSW) 3,268 7.2 -21.4°
Reaches altitude 10° 20:30:25 10° 209° (SSW) 2,352 6.5 -21.7°
Maximum altitude 20:35:47 78° 296° (WNW) 824 4.2 -22.4°
Drops below altitude 10° 20:41:16 10° 23° (NNE) 2,398 6.7 -23.1°
Sets 20:43:43 0° 25° (NNE) 3,337 7.4 -23.4°
